TimeMST,TemperatureF,Dew PointF,Humidity,Sea Level PressureIn,VisibilityMPH,Wind Direction,Wind SpeedMPH,Gust SpeedMPH,PrecipitationIn,Events,Conditions,WindDirDegrees,DateUTC
12:53 AM,23.0,17.1,78,30.42,10.0,NNW,12.7,-,N/A,,Overcast,330,2013-11-26 07:53:00
1:53 AM,21.9,12.9,68,30.44,10.0,North,15.0,-,N/A,,Overcast,350,2013-11-26 08:53:00
2:53 AM,19.9,12.0,71,30.46,10.0,North,9.2,-,N/A,,Overcast,350,2013-11-26 09:53:00
3:53 AM,17.1,10.9,77,30.49,10.0,North,10.4,-,N/A,,Mostly Cloudy,350,2013-11-26 10:53:00
4:53 AM,15.1,10.9,84,30.52,10.0,North,4.6,-,N/A,,Scattered Clouds,360,2013-11-26 11:53:00
5:01 AM,14.0,10.4,86,30.39,10.0,Calm,Calm,-,N/A,,Mostly Cloudy,0,2013-11-26 12:01:00
5:13 AM,12.2,8.6,85,30.39,10.0,NNW,5.8,-,N/A,,Mostly Cloudy,330,2013-11-26 12:13:00
5:26 AM,10.4,8.6,92,30.39,10.0,WNW,3.5,-,N/A,,Scattered Clouds,300,2013-11-26 12:26:00
5:53 AM,12.0,8.1,84,30.54,10.0,Calm,Calm,-,N/A,,Clear,0,2013-11-26 12:53:00
6:53 AM,10.0,7.0,87,30.56,10.0,NNW,3.5,-,N/A,,Clear,330,2013-11-26 13:53:00
7:53 AM,10.0,6.1,84,30.58,10.0,Calm,Calm,-,N/A,,Clear,0,2013-11-26 14:53:00
8:53 AM,18.0,12.9,81,30.57,10.0,West,5.8,-,N/A,,Clear,280,2013-11-26 15:53:00
9:53 AM,21.9,12.0,66,30.56,10.0,NW,8.1,-,N/A,,Clear,320,2013-11-26 16:53:00
10:53 AM,24.1,7.0,48,30.56,10.0,NW,8.1,-,N/A,,Clear,320,2013-11-26 17:53:00
11:53 AM,27.0,6.1,41,30.52,10.0,NW,6.9,-,N/A,,Clear,310,2013-11-26 18:53:00
12:53 PM,28.0,5.0,38,30.49,10.0,NNW,5.8,-,N/A,,Clear,330,2013-11-26 19:53:00
1:53 PM,28.0,3.9,36,30.48,10.0,WNW,4.6,-,N/A,,Clear,290,2013-11-26 20:53:00
2:53 PM,28.0,3.0,34,30.45,10.0,Calm,Calm,-,N/A,,Clear,0,2013-11-26 21:53:00
3:53 PM,26.1,3.9,39,30.46,10.0,Calm,Calm,-,N/A,,Clear,0,2013-11-26 22:53:00
4:53 PM,18.0,6.1,60,30.45,10.0,SE,4.6,-,N/A,,Clear,140,2013-11-26 23:53:00
5:53 PM,17.1,6.1,62,30.45,10.0,SE,4.6,-,N/A,,Clear,130,2013-11-27 00:53:00
6:53 PM,15.1,3.0,59,30.44,10.0,SE,5.8,-,N/A,,Clear,130,2013-11-27 01:53:00
7:53 PM,15.1,5.0,64,30.43,10.0,SE,5.8,-,N/A,,Clear,130,2013-11-27 02:53:00
8:53 PM,15.1,6.1,68,30.39,10.0,SSE,8.1,-,N/A,,Clear,150,2013-11-27 03:53:00
9:53 PM,16.0,6.1,65,30.35,10.0,SSE,6.9,-,N/A,,Clear,150,2013-11-27 04:53:00
10:53 PM,18.0,6.1,60,30.31,10.0,SE,10.4,-,N/A,,Clear,140,2013-11-27 05:53:00
11:53 PM,18.0,7.0,62,30.29,10.0,SSE,10.4,-,N/A,,Clear,150,2013-11-27 06:53:00